Regional Weather Roundup
Issued by NWS Lake Charles, LA

Home | Current Version | Previous Version | Text Only | Print | Product List | Glossary On
Versions: 1 2 3 4 5 6 7 8 9 10 11 12 13 14 15 16 17 18 19 20 21 22 23 24 25 26 27 28 29 30 31 32 33 34 35 36 37 38 39 40 41 42 43 44 45 46 47 48 49 50
000
ASUS44 KLCH 310410
RWRLCH
RWRLCH
REGIONAL WEATHER ROUNDUP
NATIONAL WEATHER SERVICE LAKE CHARLES LA
1100 PM CDT SUN AUG 30 2015

Note: "fair" indicates few or no clouds below 12,000 feet with no
significant weather and/or obstructions to visibility.


ACROSS SOUTHEAST TEXAS

CITY           SKY/WX    TMP DP  RH WIND       PRES   REMARKS
BEAUMONT       CLEAR     72  70  93 CALM      30.00R
BEAUMONT CITY    N/A     71  69  95 CALM      30.01S
ORANGE         CLEAR    N/A N/A N/A CALM      30.02S
JASPER         LGT RAIN  74  71  92 CALM      30.03S
$$

ACROSS CENTRAL LOUISIANA

CITY           SKY/WX    TMP DP  RH WIND       PRES   REMARKS
LEESVILLE      MOCLDY    75  69  81 SE2       30.00S
FULLERTON        N/A     71  66  84 CALM      30.00R
ALEXANDRIA INT MOCLDY    75  66  73 CALM      29.99S
ESLER FIELD    MOCLDY    73  66  78 CALM      30.01S
DERIDDER       MOCLDY    73  67  82 CALM      30.03S
OAKDALE          N/A     69  67  96 CALM      30.02R FOG
OPELOUSAS      MOCLDY    77  71  83 S3        30.02R
$$

ACROSS SOUTHWEST AND SOUTH CENTRAL LOUISIANA

CITY           SKY/WX    TMP DP  RH WIND       PRES   REMARKS
SULPHUR        CLEAR     73  71  95 CALM      30.02R
LAKE CHARLES   CLEAR     73  70  90 CALM      30.01R
CHENNAULT INT  CLEAR     76  71  85 CALM      30.02S
CAMERON PHI    CLEAR     81  70  69 SW3       30.03S
DEQUINCY         N/A     70  70 100 CALM      30.02R FOG
JENNINGS         N/A     74  71  89 CALM      30.02R
LAFAYETTE      CLEAR     75  72  90 CALM      30.02R
NEW IBERIA     CLEAR     76  71  85 CALM      30.02S
ABBEVILLE        N/A     72  72  98 CALM      30.02S
PATTERSON      CLEAR     75  70  83 CALM      30.04R
SALT POINT       N/A     81  74  79 CALM      30.00R
$$

SELECTED SITES ACROSS THE REGION

CITY           SKY/WX    TMP DP  RH WIND       PRES   REMARKS
HOUSTON BUSH   PTCLDY    78  69  73 S5        29.99S
HOUSTON HOBBY  PTCLDY    77  69  76 SE3       29.99R
GALVESTON      CLEAR     81  70  69 S8        30.00S
COLLEGE STAT   PTCLDY    78  67  68 SE5       29.98S
CONROE         CLEAR     72  67  84 CALM      30.00S
HUNTSVILLE     PTCLDY    74  65  73 CALM      29.99S
LUFKIN         PTCLDY    73  65  75 SE5       29.99S
SHREVEPORT     PTCLDY    78  68  71 CALM      29.98S
MONROE         CLEAR     80  64  58 S5        29.99S
NATCHEZ MS     PTCLDY    73  66  78 S3        30.03S
BATON ROUGE    CLEAR     79  71  76 SW7       30.02R
N.O. INTL ARPT PTCLDY    80  67  64 SW7       30.02R
SLIDELL        CLEAR     74  71  91 CALM      30.02R
$$

MARINE REPORTS

STATION/POSITION TIME  TEMP    WIND        PRES    VSBY  WAVE
                       AIR SEA DIR/SP/G                  HT/PER
                 (UTC) (F)     (DEG/KT/KT) (MB)    (MI)  (FT/S)
BUOY 30 S HIGH I 0350   84 86  160/  8/ 10 1015.4R         1/ 5
SEA RIM ST PARK  0400   82     190/  3/  3 1016.5S
PORT ARTHUR      NOT AVBL
SABINE PASS N    NOT AVBL
TEXAS POINT      NOT AVBL
CALCASIEU PASS   NOT AVBL
LK CHARLES BEACH NOT AVBL
MARSH ISLAND     0300   84     180/ 10/ 13   N/A           0
FRESH WATER LOCK NOT AVBL
AMERADA PASS     NOT AVBL
$$


USA.gov is the U.S. government's official web portal to all federal, state and local government web resources and services.